LIGHTSAIL 2 (44420 NORAD) Tracking and Keplerian Element Data

This shows tracking and keplerian element data for the satellite.

Feedback or suggestion? Click here.




ElementValue
Catalog44420
NameLIGHTSAIL 2
Epoch Orbit11833
Epoch Day269.0443841
Epoch Year2021
RAAN33.324
Inclination24.0061
Eccentricity0.001422
Argument of Perigee265.1266
Mean Anonmoly94.7604
Mean Motion14.60622511
Decay Rate0.00013465
L11 44420U 19036AC 21269.04438410 .00013465 00000-0 26630-2 0 9995
L22 44420 24.0061 33.3240 0014220 265.1266 94.7604 14.60622511118335

Live tracking and technical data element details for LIGHTSAIL 2 (NORAD 44420). LIGHTSAIL 2 can be tracked NOW for your location showing map with azimuth and elevation plus other details from your city location.

Track the satellite on the map from your city or location and see movement details for azimuth, elevation, latitude, longitude, range, height, and movement on the map or in text.







IsCatalogInMostPopularTable: catalog: 44420, numindb: 525
Update: records affected: 1



GetName: 44420 LIGHTSAIL 2

Hit Count: updated at: Mon, 27 Sep 2021 01:21:15 GMT